Regional Weather Roundup
Issued by NWS

Home | Current Version | Previous Version | Text Only | Print | Product List | Glossary On
Versions: 1 2 3 4 5 6 7 8 9 10 11 12 13 14 15 16 17 18 19 20 21 22 23 24 25 26 27 28 29 30 31 32 33 34 35 36 37 38 39 40 41 42 43 44 45 46 47 48 49 50
000
ASUS43 KTOP 252208
RWRKS

WEATHER ROUNDUP FOR KANSAS
NATIONAL WEATHER SERVICE GOODLAND KS
400 PM CST SUN JAN 25 2015

NOTE:  "FAIR" INDICATES FEW OR NO CLOUDS BELOW 12,000 FEET WITH NO
SIGNIFICANT WEATHER AND/OR OBSTRUCTIONS TO VISIBILITY.

KSZ001>006-013>018-027>032-041>047-252300-
NORTHWEST KANSAS

CITY           SKY/WX    TMP DP  RH WIND       PRES   REMARKS
GOODLAND       SUNNY     55  29  36 N15G23    30.09R
HAYS           SUNNY     52  25  35 N20G28    30.08R
HILL CITY      SUNNY     53  23  31 N17       30.09R
RUSSELL        SUNNY     51  25  36 N23G29    30.06R
$$

KSZ061>065-074>080-084>089-252300-
SOUTHWEST KANSAS

CITY           SKY/WX    TMP DP  RH WIND       PRES   REMARKS
DODGE CITY     SUNNY     55  17  22 N16G30    30.08S
ELKHART          N/A     58  31  36 NW7         N/A
GARDEN CITY    SUNNY     57  15  19 N22G29    30.07F
GREAT BEND     SUNNY     52  25  35 N22G29    30.08R
LIBERAL        SUNNY     61  23  23 N21       30.12S
PRATT          SUNNY     52  23  32 N23G30    30.07S
$$

KSZ066>073-081>083-090>101-252300-
SOUTHEAST KANSAS

CITY           SKY/WX    TMP DP  RH WIND       PRES   REMARKS
CHANUTE        CLOUDY    44  32  62 N20       30.00R
COFFEYVILLE    CLOUDY    47  32  56 N17       30.00R
HUTCHINSON     SUNNY     52  28  39 N18G29    30.04S
MEDICINE LODGE   N/A     54  25  32 N22G30    30.05S
NEWTON         CLOUDY    46  28  49 N24G31    30.05R
PARSONS        CLOUDY    46  32  58 N22G28    30.00R
WICHITA INTL   MOSUNNY   52  28  39 N22G31    30.03R
WICHITA JABRA  PTSUNNY   50  30  46 N24G33    30.03R
WICHITA MCCONL SUNNY     50  31  47 N22G31    30.03R
WINFIELD       PTSUNNY   50  29  44 NW24G32   30.05R
$$

KSZ007>012-019>026-033>040-048>060-102>105-252300-
NORTHEAST KANSAS

CITY           SKY/WX    TMP DP  RH WIND       PRES   REMARKS
CONCORDIA      CLOUDY    43  31  62 N21G31    30.07R
EMPORIA        CLOUDY    43  30  60 N17G30    30.02R
LAWRENCE       CLOUDY    38  32  79 N18       30.01R WCI  28
MANHATTAN      CLOUDY    44  31  60 N9G18     30.05R
MARYSVILLE     CLOUDY    39  32  75 N15G23    30.06R WCI  31
OLATHE IND     CLOUDY    38  32  79 NW21G26   29.98R WCI  28
OLATHE EXE     CLOUDY    38  32  79 N16G24    29.96R WCI  29
SALINA         MOSUNNY   49  30  48 N25G33    30.07R
TOPEKA BILLARD CLOUDY    41  31  67 NW21G26   30.04R
TOPEKA FORBES  CLOUDY    42  31  64 N18       30.01R
$$


USA.gov is the U.S. government's official web portal to all federal, state and local government web resources and services.